Weather Service Report


007 
ASUS41 KGYX 300010
RWRGYX
WEATHER ROUNDUP FOR MAINE AND NEW HAMPSHIRE
NATIONAL WEATHER SERVICE GRAY ME
800 PM EDT FRI APR 29 2016

MEZ002-005-006-010-012-015-018-020-021-024-026-027-029-300100-
MAINE
  
CITY           SKY/WX    TMP DP  RH WIND       PRES   REMARKS
PORTLAND       CLOUDY    43  33  68 S7        30.14R                  
6HR MIN TEMP:  43; 6HR MAX TEMP:  49;                                

SANFORD        CLOUDY    43  30  61 S5        30.13S                  
BAR HARBOR     CLEAR     41  35  79 SW9       30.15R                  
WISCASSET      CLOUDY    44  31  60 S5        30.16R                  
6HR MIN TEMP:  44; 6HR MAX TEMP:  48;                                

ROCKLAND       CLEAR     41  31  67 SW6       30.15S                  
FRYEBURG       CLOUDY    47  32  56 E8        30.10R                  
6HR MIN TEMP:  47; 6HR MAX TEMP:  57;                                

LEWISTONAUBURN CLOUDY    43  30  61 S8        30.12R                  
AUGUSTA        CLEAR     43  33  68 S7        30.13R                  
6HR MIN TEMP:  43; 6HR MAX TEMP:  51;                                

WATERVILLE     CLOUDY    44  33  65 SW8       30.09R                  
BANGOR         PTCLDY    44  35  70 S9        30.12R                  
6HR MIN TEMP:  44; 6HR MAX TEMP:  57;                                

GREENVILLE       N/A     45   9  23 N7        30.05R                  
6HR MIN TEMP:  45; 6HR MAX TEMP:  52;                                

MILLINOCKET    CLEAR     45  13  27 CALM      30.09R                  
6HR MIN TEMP:  45; 6HR MAX TEMP:  55;                                

HOULTON        CLEAR     43   9  24 N3        30.09R                  
6HR MIN TEMP:  43; 6HR MAX TEMP:  53;                                

PRESQUE ISLE   NOT AVBL                                               
FRENCHVILLE    CLEAR     37   7  28 NW8       30.11R                  
6HR MIN TEMP:  37; 6HR MAX TEMP:  47;                                

CARIBOU        CLEAR     39  11  31 N8        30.10R                  
6HR MIN TEMP:  39; 6HR MAX TEMP:  50;                                

$$

NHZ002-005-008-009-011-012-014-300100-
NEW HAMPSHIRE
  
CITY           SKY/WX    TMP DP  RH WIND       PRES   REMARKS
PORTSMOUTH     CLOUDY    44  33  67 SE10      30.12R                  
ROCHESTER      CLOUDY    44  32  62 SE7       30.12R                  
6HR MIN TEMP:  44; 6HR MAX TEMP:  54;                                

NASHUA         CLOUDY    49  33  54 SE6G18    30.11R                  
MANCHESTER     MOCLDY    50  31  48 SE12      30.09R                  
6HR MIN TEMP:  50; 6HR MAX TEMP:  59;                                

CONCORD        CLOUDY    50  32  50 SE8       30.09R                  
6HR MIN TEMP:  50; 6HR MAX TEMP:  60;                                

LACONIA        CLOUDY    50  30  46 CALM      30.08R                  
PLYMOUTH       FAIR      52  33  47 CALM      30.07R                  
BERLIN         CLOUDY    51  20  29 N6        30.05R                  
6HR MIN TEMP:  51; 6HR MAX TEMP:  59;                                

WHITEFIELD     MOCLDY    47  33  58 CALM      30.05R                  
6HR MIN TEMP:  47; 6HR MAX TEMP:  58;                                

JAFFREY        CLOUDY    51  33  50 VRB6      30.07R                  
6HR MIN TEMP:  51; 6HR MAX TEMP:  59;                                

KEENE          MOCLDY    55  34  44 S3        30.06R                  
LEBANON        CLOUDY    55  32  41 CALM      30.04R                  
6HR MIN TEMP:  54; 6HR MAX TEMP:  61;                                

MT WASHINGTON  MOCLDY    27  19  74 W12         N/A  WCI  16          
6HR MIN TEMP:  26; 6HR MAX TEMP:  31;                                

$$

VTZ005-007-008-300100-
VERMONT
  
CITY           SKY/WX    TMP DP  RH WIND       PRES   REMARKS
ST JOHNSBURY     N/A     55  23  28 MISG      30.04R                  
MONTPELIER     FAIR      51  25  36 CALM      30.09R                  
BURLINGTON     CLOUDY    51  21  30 N9        30.08R                  
$$

MAZ007-012-024-CTZ003-RIZ002-NYZ038-NYZ072-300100-
SOUTHERN NEW ENGLAND AND NY
  
CITY           SKY/WX    TMP DP  RH WIND       PRES   REMARKS
BOSTON         MOCLDY    47  31  53 SE14      30.13S                  
WORCESTER      CLOUDY    50  31  48 SE13      30.08R                  
NANTUCKET      CLEAR     44  32  62 E8        30.15R                  
PROVIDENCE     MOCLDY    48  34  58 SE9       30.13R                  
HARTFORD       CLOUDY    54  34  46 S12       30.07R                  
ALBANY         CLOUDY    55  34  45 S6        30.07R                  
NEW YORK CITY  LGT RAIN  51  34  52 E6        30.09R                  
$$

ANZ081-ANZ082-ANZ150-NHZ014-MEZ023>029-300100-
COASTAL MARINE OBSERVATIONS
  
STATION/POSITION TIME  TEMP    WIND        PRES    WAVE
                       AIR SEA DIR/SP/G            HT/PER
                 (UTC) (F)     (DEG/KT/KT) (MB)    (FT/S)
MOUNT DESERT ROC 0000   42     220/ 14/ 16 1021.4R
MATINICUS ROCK   2300   43     220/ 14/ 16 1020.9R
ISLE OF SHOALS   2300   44     150/ 18/ 19 1019.6F
CASHES LEDGE BUO 2350   43 45  180/  8/  8 1020.9F   2/ 9
GEORGES BANK BUO 2250   44 45              1020.6    3/ 5
$$

.............KEY..............
   WCI - WIND CHILL
   TC  - TEMPERATURE IN CELSIUS
   VSB - VISIBILITY IN MILES
   HX  - HEAT INDEX
   FAIR- INDICATES FEW OR NO CLOUDS BELOW 12,000 FT, WITH NO 
         SIGNIFICANT WEATHER AND/OR OBSTRUCTIONS TO VISIBILITY.


  

Return to Home page


Western Regional Climate Center, wrcc@dri.edu